Regional Weather Roundup
Issued by NWS

Home | Current Version | Previous Version | Text Only | Print | Product List | Glossary On
Versions: 1 2 3 4 5 6 7 8 9 10 11 12 13 14 15 16 17 18 19 20 21 22 23 24 25 26 27 28 29 30 31 32 33 34 35 36 37 38 39 40 41 42 43 44 45 46 47 48 49 50
000
ASUS44 KLUB 031401
RWRTX
WEST TEXAS WEATHER ROUNDUP
NATIONAL WEATHER SERVICE LUBBOCK TX
900 AM CDT WED JUN 03 2015

NOTE: "FAIR" INDICATES FEW OR NO CLOUDS BELOW 12,000 FEET WITH NO
SIGNIFICANT WEATHER AND/OR OBSTRUCTIONS TO VISIBILITY.

TXZ004-006>008-010-012-014-016-OKZ002-031500-
TEXAS PANHANDLE/OKLAHOMA PANHANDLE

CITY           SKY/WX    TMP DP  RH WIND       PRES   REMARKS
AMARILLO       SUNNY     70  61  73 S16       29.92R
BORGER         SUNNY     74  62  66 S14G21    29.88S
CANADIAN       SUNNY     74  66  75 S10       29.87R
DALHART        SUNNY     72  58  61 W9        29.92R
DUMAS          SUNNY     72  59  63 SW12      29.89R
GUYMON         SUNNY     73  61  65 SW15      29.83S
$$

TXZ026-029-035-045-048-031500-
SOUTHERN PANHANDLE/SOUTH PLAINS/ROLLING PLAINS

CITY           SKY/WX    TMP DP  RH WIND       PRES   REMARKS
CHILDRESS      SUNNY     74  64  71 S16       29.90R
LUBBOCK        MOSUNNY   71  62  73 S18       29.91S
$$

TXZ052-054-060>062-072-078-127-140-154-169-031500-
PERMIAN BASIN/CONCHO VALLEY/BIG COUNTRY/EDWARDS PLATEAU

CITY           SKY/WX    TMP DP  RH WIND       PRES   REMARKS
ABILENE        SUNNY     76  64  66 S18G26    29.92S
BRADY          PTSUNNY   72  68  88 S12       29.96R
JUNCTION       PTSUNNY   73  66  78 S16G24    29.96R
MIDLAND        MOSUNNY   73  62  68 S15       29.93R
ODESSA         MOSUNNY   72  61  68 S13       29.94R
SAN ANGELO     PTSUNNY   73  67  81 S12       29.94S
WINK           SUNNY     73  62  68 SE12      29.89R
$$

TXZ055-058-074-075-080-082-031500-
FAR WEST/SOUTHWEST MOUNTAINS/TRANS PECOS

CITY           SKY/WX    TMP DP  RH WIND       PRES   REMARKS
DRYDEN           N/A     73  66  78 SE7       29.92R
EL PASO        SUNNY     82  26  13 SW7       29.98R
FORT STOCKTON  SUNNY     72  61  68 SE8       29.92R
GUADALUPE PASS SUNNY     74  44  34 W17       30.10R
MARFA          SUNNY     72  50  46 CALM      30.08S
$$

TXZ014-016-019-021>030-083-031500
TEXAS TECH WEST TEXAS MESONET/TEXAS PANHANDLE/NORTHERN SOUTH PLAINS

CITY           SKY/WX    TMP DP  RH WIND       PRES   REMARKS
ABERNATHY 5ENE   N/A     69  62  77 S12       29.94S
AMARILLO 7SSE    N/A     69  62  78 S12       29.93R
AMHERST 1NE      N/A     67  62  82 S13       29.93S
BOOTLEG 11WNW    N/A     67  57  70 SW8       29.97R
CANADIAN 6E      N/A     72  64  76 S15       29.86R
CAPROCK CYN SP   N/A     72  64  74 S15       29.91R
CHILDRESS 2NNE   N/A     73  63  70 S13       29.89S
CLAUDE 12SW      N/A     69  62  77 S14       29.92S
DIMMITT 2NE      N/A     67  62  84 S13       29.94S
FLOYDADA 2NNE    N/A     69  62  78 S14       29.92S
FRIONA 2NE       N/A     67  61  81 S10       29.95R
GOODLETT 3W      N/A     75  63  66 S12       29.89R
HART 3N          N/A     66  61  83 SW12      29.94R
HEREFORD 2NW     N/A     67  60  76 S10       29.93S
MCLEAN 1E        N/A     70  64  81 S14       29.89S
MEMPHIS 1NE      N/A     72  64  77 SE8       29.89S
MULESHOE 2SSW    N/A     67  62  84 SW13      29.94S
OLTON 6S         N/A     68  61  79 S10       29.93R
PALO DURO SP     N/A     70  61  75 S8        29.94R
PAMPA 2E         N/A     70  63  79 S15       29.90R
PLAINVIEW 1S     N/A     67  63  86 S9        29.92S
SILVERTON 7ESE   N/A     71  62  72 S16       29.93R
TULIA 2ENE       N/A     67  63  84 S17       29.93R
UMBARGER 3NNE    N/A     67  62  82 SW14      29.92S
$$

TXZ033>036-039>041-045>048-031500
TEXAS TECH WEST TEXAS MESONET/SOUTH PLAINS

CITY           SKY/WX    TMP DP  RH WIND       PRES   REMARKS
AIKEN 3WSW       N/A     69  63  81 S16       29.94R
ANDREWS 2NE      N/A     70  60  70 S13       29.93S
ANTON 6SSW       N/A     68  62  81 S15       29.92S
BROWNFIELD 2S    N/A     68  61  78 S14       29.93S
DENVR CTY 7WNW   N/A     66  60  80 S9        29.94S
GAIL 2ESE        N/A     69  63  82 S8        29.92S
LAMESA 2SE       N/A     69  62  80 S14       29.94S
LEVELLAND 4S     N/A     68  61  78 S12       29.94R
LUBBOCK 3WNW     N/A     70  60  72 S15       29.92S
MORTON 1ENE      N/A     66  61  85 S10       29.94S
ODONNELL 1N      N/A     69  61  74 S15       29.93S
PLAINS 3N        N/A     67  61  80 S12       29.94S
RALLS 1SE        N/A     69  62  78 S14       29.94S
REESE CENTER     N/A     68  61  79 S16       29.93R
SEAGRAVES 1SW    N/A     68  62  81 S9        29.93S
SEMINOLE 2NNE    N/A     67  61  79 S9        29.93R
SLATON 2NE       N/A     69  62  76 S22       29.91S
SNYDER 3E        N/A     71  63  77 S16G26    29.92S
SUNDOWN 8SW      N/A     67  62  81 S9        29.94S
TAHOKA 3NNE      N/A     69  62  79 S18       29.92S
WOLFFORTH 6SSW   N/A     69  64  83 S17       29.93S
$$

TXZ031-032-036>038-042>044-031500-
TEXAS TECH WEST TEXAS MESONET/ROLLING PLAINS

CITY           SKY/WX    TMP DP  RH WIND       PRES   REMARKS
ASPERMONT 3NE    N/A     74  64  70 S9        29.91R
FLUVANNA 3WNW    N/A     69  61  76 S15       29.92F
GRAHAM 5SSW      N/A     69  61  75 S15       29.92S
GUTHRIE 10WSW    N/A     72  63  74 S8        29.91R
HASKELL 1NW      N/A     74  61  63 S13       29.90S
JAYTON 1SSE      N/A     72  63  73 S10       29.91S
KNOX CITY 3NW    N/A     76  61  58 S13       29.91S
LK A HENRY 1NW   N/A     73  63  71 S9        29.90S
NORTHFIELD 1S    N/A     73  65  75 S8        29.89S
ODELL 4ENE       N/A     75  65  71 S10       29.90S
PADUCAH 10SW     N/A     71  64  76 S13       29.90R
POST 1NE         N/A     71  62  72 S15       29.90F
RRING SPRGS 3N   N/A     72  64  75 S17       29.91S
SEYMOUR 3NW      N/A     75  63  66 S8        29.91R
SPUR 1W          N/A     70  63  77 S8        29.91S
WEINERT 2NNE     N/A     75  64  67 S9        29.91S
WHITE RVR 6NE    N/A     70  62  78 S8        29.92S
$$

TXZ052-054-060>062-072-078-127-140-154-169-031500-
TEXAS TECH WEST TEXAS MESONET/PERMIAN BASIN/
CONCHO VALLEY/BIG COUNTRY/EDWARDS PLATEAU

CITY           SKY/WX    TMP DP  RH WIND       PRES   REMARKS
COYANOSA 2N      N/A     73  63  69 SE6       29.90R
JUNCTION 1SSW    N/A     74  67  78 S14       29.96S
MERTZON 3NNE     N/A     71  66  83 S14       29.95S
SAN ANGELO 7NW   N/A     71  64  79 S9        29.95R
STRLNG CT 4WSW   N/A     72  64  78 SE12      29.95R
ST LAWRNCE 5SW   N/A     71  63  76 S21       29.94R
SWEETWATR 11SW   N/A     71  64  77 S17       29.94S
WALL 1E          N/A     73  64  73 S13       29.95R
$$

TXZ055-058-074-075-080-082-031500-
TEXAS TECH WEST TEXAS MESONET/FAR WEST/SOUTHWEST MOUNTAINS/TRANS PECOS

CITY           SKY/WX    TMP DP  RH WIND       PRES   REMARKS
PRSMN GAP BBNP   N/A     75  61  62 SE1       29.94S
$$


USA.gov is the U.S. government's official web portal to all federal, state and local government web resources and services.